Theta_e
336 336 338 344 344 346 347 347 347 347 348 348 348 349 348 347 347 348 349 348 348 349 348 347 346 345 344 343 342 343 345 347 347 347 346 346 346 346 345 344 344 343 342 342 342 343 342 341 341 342 341 341 341 340 338 337 336 335 337 337 337 337 337 337 337 337 337 337 338 337 337 336 336 336 335 336 334 334 335 334 333 330 328 331 335
336 334 340 342 346 346 346 347 347 346 347 348 347 348 348 348 347 346 347 347 347 346 346 345 344 342 341 341 341 341 341 342 343 344 344 344 344 344 344 344 343 342 340 339 339 340 341 340 341 341 340 340 341 339 338 336 335 336 335 334 336 336 336 336 336 336 336 336 337 338 336 337 335 336 335 334 334 333 335 334 333 329 328 334 335
334 334 338 343 345 346 346 346 346 345 345 346 347 347 348 348 347 347 347 346 345 343 343 343 343 342 341 342 343 344 344 344 343 342 342 343 343 342 342 341 340 339 339 340 339 339 339 339 339 340 340 341 340 338 337 336 335 335 335 334 334 334 335 335 336 335 335 335 335 334 334 336 334 335 336 334 333 333 334 335 334 333 329 334 334
334 335 337 343 345 346 346 346 345 344 344 345 345 345 347 347 346 346 346 345 344 344 343 341 341 341 341 343 343 342 342 341 339 342 342 343 342 342 341 340 340 339 338 338 338 338 340 340 340 339 340 340 340 339 337 335 334 334 334 333 333 333 335 335 335 335 335 335 334 330 328 325 330 334 336 334 334 333 333 333 334 335 335 334 334
336 339 341 341 342 346 347 346 344 344 343 343 344 344 343 346 346 345 344 344 343 343 342 339 339 339 341 342 343 341 339 338 338 340 341 340 338 338 338 338 338 338 339 339 338 337 338 339 339 340 339 340 340 338 337 335 335 334 333 332 332 334 335 336 336 336 337 336 335 328 321 323 327 333 335 335 333 333 334 333 333 334 334 334 335
339 341 341 339 338 341 346 346 345 343 342 341 342 342 342 340 342 345 343 342 342 342 341 339 340 342 343 344 341 340 340 341 343 342 341 341 339 339 338 337 338 337 338 337 338 339 338 339 340 339 339 339 338 337 336 336 335 334 333 332 333 335 336 336 337 336 335 333 332 326 324 323 325 329 335 335 333 334 333 332 333 333 332 334 333
341 341 340 338 337 340 345 346 344 343 341 340 340 340 341 341 340 339 339 340 341 341 339 339 343 343 344 345 343 342 340 339 341 339 340 343 343 342 341 339 339 339 339 338 337 337 338 338 337 339 339 338 337 336 335 335 334 334 333 333 334 335 336 336 335 334 333 328 325 327 326 324 324 325 333 332 334 333 333 333 332 332 332 332 333
341 340 338 336 337 342 345 345 344 342 341 339 339 341 341 339 339 339 339 339 340 341 339 341 344 345 346 346 344 342 340 340 340 339 340 341 340 338 336 335 337 337 337 337 337 337 337 338 337 338 339 338 337 337 336 335 334 333 332 334 336 335 335 335 333 332 331 324 324 327 329 327 325 324 332 331 331 332 332 332 331 334 336 335 335
340 338 338 337 337 343 343 343 342 341 340 339 339 339 338 337 339 340 338 338 340 340 339 339 344 346 347 346 345 343 342 341 339 339 340 340 337 336 337 338 336 337 336 337 337 336 337 337 337 337 338 338 337 336 335 335 334 333 333 335 336 335 335 333 331 328 325 323 324 326 332 330 328 325 331 333 332 331 330 332 333 334 337 336 334
339 338 336 335 337 341 342 343 341 341 340 339 339 339 337 337 338 338 338 338 339 339 339 339 347 347 346 346 344 343 344 343 341 339 339 338 336 336 336 335 337 337 337 336 337 336 337 337 337 337 337 337 336 336 336 335 335 335 334 335 335 334 334 331 327 325 319 322 323 325 331 336 330 329 330 332 332 333 333 334 337 336 335 335 335
339 339 336 336 339 341 343 344 344 342 339 339 338 339 340 339 338 337 338 339 338 338 339 339 343 346 345 345 344 344 344 343 340 339 338 337 338 338 338 336 336 336 336 336 336 337 337 337 337 337 336 336 336 335 336 335 334 334 335 335 334 333 332 329 324 317 317 318 322 324 330 335 330 331 332 333 333 334 335 336 335 336 335 335 336
339 339 337 337 343 340 343 343 343 340 338 338 338 339 339 339 338 337 337 339 339 338 339 340 341 343 344 344 344 344 343 342 340 339 339 339 337 337 336 337 336 335 336 336 336 337 337 337 336 336 336 336 335 335 335 334 334 334 335 334 333 332 330 327 319 316 316 317 321 325 326 328 330 334 335 334 334 337 336 335 335 336 336 336 336
339 339 338 338 339 340 341 343 342 341 340 338 338 338 338 338 338 337 338 339 339 339 339 339 343 344 344 344 344 343 342 342 339 338 338 337 337 338 337 335 336 337 336 336 336 336 336 337 336 335 335 335 335 335 334 333 333 333 333 333 332 331 329 326 315 315 315 315 319 321 324 324 329 336 336 335 334 335 337 336 336 336 336 335 336
338 339 338 339 340 343 338 340 340 340 342 341 339 337 336 336 334 336 341 341 341 340 340 340 340 342 343 343 343 343 342 342 340 338 338 337 337 337 337 337 336 335 336 336 336 336 336 335 335 335 335 335 335 334 334 333 333 334 334 333 331 329 326 323 323 313 315 314 317 319 319 324 328 335 336 336 335 334 335 336 336 336 336 336 335
338 338 338 340 342 340 341 338 339 339 340 340 339 338 335 337 336 336 339 340 341 340 339 339 339 340 341 342 342 342 342 341 340 339 338 338 338 337 337 336 337 337 336 336 336 335 335 334 334 334 334 334 334 334 334 334 333 333 332 332 330 327 323 314 315 311 313 317 314 317 316 319 335 335 336 337 336 335 335 335 336 336 335 335 335
339 338 339 340 341 340 340 340 336 335 337 337 338 339 339 339 341 339 340 340 339 339 338 338 338 340 341 342 342 342 342 341 339 339 340 338 337 337 336 336 336 335 336 336 335 334 334 333 333 332 332 333 333 333 333 333 332 332 331 330 329 327 323 319 311 311 310 313 314 316 316 319 336 335 336 336 336 334 333 335 336 336 336 335 335
338 339 339 340 340 339 339 338 335 333 332 333 335 336 338 341 342 341 341 340 340 339 338 338 339 341 342 342 341 341 340 340 339 339 338 336 336 338 337 335 335 335 335 335 335 334 333 333 333 333 332 333 333 333 333 333 332 331 331 329 328 326 322 319 313 311 312 317 316 317 318 321 334 334 337 336 336 334 334 334 336 336 335 335 335
338 339 339 340 339 338 338 337 334 331 327 330 331 335 337 339 340 340 340 340 340 340 340 341 341 341 340 340 340 341 340 339 340 339 339 338 336 335 337 336 336 336 335 335 333 333 333 333 333 333 333 333 333 333 333 332 332 331 330 328 325 324 323 320 312 312 312 320 313 317 318 331 335 335 335 336 335 335 334 335 336 335 335 335 334
337 338 339 339 337 337 336 335 333 330 327 326 326 330 332 335 336 337 338 338 339 338 338 338 338 338 338 337 337 336 335 336 337 337 336 335 334 332 335 337 335 335 334 334 333 333 333 333 332 333 333 333 333 332 331 332 333 331 329 325 323 320 319 316 311 310 312 311 315 316 319 333 334 335 334 336 336 335 335 335 336 335 335 335 335
336 338 338 338 337 335 334 333 333 332 330 328 326 326 330 330 333 334 334 335 337 336 334 333 331 331 331 331 330 329 328 328 329 330 332 335 333 327 332 335 334 334 334 334 333 333 332 332 332 333 332 334 331 330 329 332 331 330 328 324 321 318 311 309 311 311 311 313 317 313 325 333 334 335 334 335 335 335 334 335 335 334 334 335 334
335 337 337 337 336 334 333 332 332 331 331 329 325 327 328 328 329 330 331 332 334 333 331 325 324 323 324 323 324 323 324 326 325 324 323 324 324 326 330 335 334 333 333 333 332 332 332 332 332 331 333 333 325 323 321 324 326 326 324 322 317 310 310 309 310 316 315 313 315 312 329 332 333 334 334 334 334 334 334 334 334 334 334 334 334
332 335 337 336 335 333 332 331 330 330 330 331 332 331 330 327 324 327 328 328 328 327 325 323 327 320 321 322 321 323 324 325 325 327 323 324 324 325 329 333 334 333 332 332 332 332 332 331 332 333 334 330 321 312 313 316 318 322 321 317 311 310 309 311 313 316 317 311 313 316 329 332 333 334 333 333 334 333 333 334 334 334 334 334 332
331 334 335 335 334 333 332 330 330 329 330 332 333 332 331 329 329 329 327 325 327 323 322 323 320 320 319 319 320 323 324 325 325 324 324 321 324 324 328 331 332 331 333 332 331 331 332 332 331 330 328 322 314 310 310 310 310 315 314 311 310 309 309 311 312 312 312 312 309 322 330 332 333 332 332 333 333 332 332 333 333 334 333 332 331
330 334 334 334 333 332 331 330 328 328 330 331 332 332 331 330 329 328 327 325 325 324 321 320 319 319 318 317 320 322 324 324 325 326 325 324 324 322 323 324 326 326 326 326 324 324 325 324 323 323 318 312 309 310 310 310 309 309 311 310 312 309 310 310 311 311 310 314 311 322 329 332 333 332 333 333 332 332 333 333 333 333 332 330 330
332 334 334 334 333 331 330 329 327 327 330 330 331 331 331 331 329 327 325 325 323 322 323 320 318 319 317 317 318 321 323 323 324 324 323 324 324 324 324 325 325 325 321 322 319 318 318 316 312 311 310 311 310 310 308 311 311 311 312 313 316 314 313 313 313 311 311 309 314 323 326 330 333 332 333 333 332 334 333 332 332 332 330 329 329
333 332 333 334 333 332 330 327 326 326 328 330 331 330 331 330 329 328 324 324 323 321 321 320 318 317 316 316 318 322 322 323 323 322 322 322 322 321 322 323 322 322 321 321 319 318 317 316 314 311 310 310 311 311 309 308 311 311 311 312 313 315 312 313 314 310 308 314 318 321 325 330 331 331 332 333 332 331 333 331 329 329 329 329 327
331 332 334 334 334 332 330 328 326 324 326 329 330 330 330 330 330 328 325 324 323 321 321 319 319 317 316 316 319 321 322 322 321 321 320 320 321 321 320 320 321 320 320 320 319 318 316 314 313 312 310 310 312 311 309 309 308 309 311 310 310 312 313 314 314 311 314 317 316 317 323 328 329 330 331 331 331 331 332 331 327 329 329 328 326
330 332 333 334 333 332 331 328 326 324 325 327 329 329 330 330 329 327 327 325 323 322 321 320 319 318 316 316 317 320 321 321 321 320 320 319 320 320 320 319 319 319 320 318 318 316 315 315 313 312 312 309 308 310 310 309 309 309 310 312 311 313 316 316 315 314 314 313 310 311 319 326 328 326 327 329 329 330 331 331 328 329 328 326 325
328 330 332 333 334 333 332 329 326 325 324 325 327 328 328 329 328 327 327 325 324 322 321 320 319 318 317 317 315 318 321 321 321 321 320 319 319 319 319 319 319 318 318 318 316 315 313 313 314 314 310 310 307 311 309 311 309 310 311 311 313 317 316 315 315 314 313 309 310 311 318 322 326 326 326 326 328 328 328 329 327 328 327 326 325
327 329 330 332 334 334 333 330 327 326 325 324 324 325 327 327 327 327 327 325 325 323 318 319 319 318 318 317 316 318 319 320 321 320 319 318 318 318 318 318 318 319 317 316 316 314 313 310 311 311 311 311 310 312 308 310 311 310 309 310 315 315 315 315 315 314 313 311 310 312 315 319 323 324 325 326 327 326 327 327 326 326 326 325 325
324 325 328 330 332 333 333 332 329 325 325 324 323 323 324 325 326 327 327 326 326 324 321 320 318 318 318 317 317 316 316 317 319 319 318 318 317 316 316 317 317 317 316 316 316 314 313 311 312 311 311 310 311 309 308 310 310 312 310 312 316 315 315 314 317 315 313 313 311 309 308 314 318 322 324 326 328 328 329 326 325 326 325 325 324
321 322 325 329 330 331 332 333 332 329 325 324 322 322 323 324 325 325 326 326 325 324 323 320 319 319 318 317 317 317 316 316 316 316 316 316 315 315 315 315 316 315 315 315 315 313 311 311 308 308 308 308 310 309 308 309 311 312 311 314 313 314 314 314 315 313 313 313 311 309 307 306 311 317 319 323 324 326 328 325 325 324 324 324 324
321 321 322 324 327 329 330 332 332 330 328 326 324 323 322 322 321 323 325 325 324 323 323 322 321 319 318 317 317 317 317 317 317 317 316 316 316 315 314 314 315 315 313 313 312 310 308 308 310 307 308 307 307 311 309 308 308 312 309 310 309 310 309 311 314 313 312 313 312 307 305 305 304 309 311 315 320 326 327 325 324 324 323 324 324
320 320 320 321 324 326 327 329 330 330 329 329 328 325 323 322 321 321 321 321 321 320 320 320 320 319 318 318 318 317 317 318 318 317 317 317 316 315 315 315 316 313 313 310 313 311 312 309 311 308 312 309 310 311 309 312 309 307 309 308 306 309 310 311 313 313 312 313 311 308 306 306 304 303 302 310 315 320 328 325 323 323 322 323 323
319 319 320 320 321 323 324 326 326 328 328 329 328 328 325 323 321 321 321 321 320 320 320 319 319 319 318 318 318 318 317 318 318 318 317 317 316 315 314 316 316 313 312 311 313 312 311 313 310 309 308 309 308 308 308 310 309 311 312 308 310 308 305 310 309 310 311 312 309 307 305 305 305 304 302 301 308 313 321 325 321 320 321 321 321
319 319 320 320 320 321 321 323 322 325 327 328 329 329 327 325 322 320 321 320 320 320 320 319 319 319 318 318 317 318 318 318 317 317 317 316 316 316 316 316 315 313 313 311 311 313 312 311 310 310 309 310 308 311 308 309 308 310 310 308 309 306 306 306 309 310 311 311 309 307 305 304 305 305 304 303 303 307 315 319 321 321 322 321 321
320 319 319 318 319 320 320 321 320 321 324 325 327 327 327 324 322 321 321 320 320 320 320 319 319 318 318 318 318 318 318 318 318 317 317 317 317 316 317 316 315 313 312 312 312 314 312 312 310 308 310 311 309 309 310 309 309 310 309 308 309 307 307 308 309 310 309 309 308 306 305 304 304 305 304 304 301 301 308 313 315 314 315 319 320
321 320 319 319 319 319 320 321 321 321 322 323 324 325 325 323 321 320 319 320 320 320 320 319 319 319 319 318 319 318 318 319 319 318 317 318 317 317 317 316 315 314 313 312 314 312 311 311 313 309 310 310 310 310 311 309 306 309 308 308 308 305 306 305 305 306 308 308 306 305 305 305 304 303 302 302 301 299 299 306 309 309 309 314 319
321 320 320 319 319 319 319 318 320 320 320 320 320 321 321 319 318 318 318 318 318 319 319 318 319 319 319 319 319 319 319 319 319 318 317 317 316 316 316 315 315 314 314 313 312 311 310 310 312 312 308 311 312 310 311 308 309 306 308 309 305 304 303 304 306 306 307 308 307 305 304 304 305 301 300 301 299 297 295 294 294 294 299 309 313
321 320 319 319 318 318 318 319 319 320 320 319 319 318 317 317 317 315 316 316 317 316 317 319 319 319 319 319 319 320 320 319 319 318 318 317 317 316 316 316 315 315 314 313 313 313 313 311 311 312 310 307 306 308 305 306 305 304 307 307 305 304 306 305 306 308 308 308 309 305 303 303 305 302 300 300 297 295 294 293 293 293 294 302 307
321 320 319 319 319 318 317 318 319 320 319 319 318 318 317 316 315 317 317 317 316 317 317 318 319 320 319 319 320 320 319 318 318 318 318 316 317 317 316 316 315 315 315 315 316 314 314 313 311 309 311 310 308 305 305 307 308 308 303 303 307 305 305 305 306 306 307 307 306 305 301 302 305 303 300 298 295 293 292 292 292 291 291 290 296
319 320 320 319 319 319 318 318 319 319 320 320 319 319 319 319 318 318 318 318 317 317 318 318 319 320 319 319 319 319 319 319 318 318 318 318 317 317 316 317 316 315 315 315 314 312 312 312 310 309 306 312 309 306 307 311 305 305 306 304 300 304 302 305 305 305 304 304 304 304 301 301 303 303 299 297 294 292 291 291 289 289 287 287 288
320 320 321 320 319 319 318 318 319 319 320 320 320 319 319 319 319 318 319 318 319 320 320 320 319 319 320 320 319 319 319 318 318 317 318 318 318 318 317 317 316 316 314 314 313 313 313 313 312 314 309 305 309 304 307 312 310 303 306 307 304 304 302 301 303 303 304 303 302 303 302 300 301 303 299 297 295 292 291 289 288 287 286 286 287
319 319 320 320 321 320 319 318 319 319 320 320 319 320 320 320 320 320 318 319 317 317 318 317 316 317 318 319 319 319 319 319 319 318 318 319 319 318 318 317 317 316 316 315 314 314 313 313 312 312 312 313 305 309 307 310 311 309 308 309 305 303 303 300 299 302 302 301 301 302 302 301 299 300 298 298 296 294 293 290 288 287 287 286 287
319 319 320 321 322 321 320 319 319 319 319 319 319 320 318 316 317 314 314 314 314 313 312 315 316 316 317 317 319 319 319 319 319 319 318 318 319 319 318 318 317 316 316 316 316 316 315 315 314 313 312 315 314 308 304 308 311 314 314 305 303 302 304 302 303 306 298 298 299 302 300 301 299 298 299 299 298 297 294 292 289 287 287 286 286
318 320 321 321 322 322 322 321 320 319 319 319 319 319 319 318 316 316 315 315 315 314 314 315 315 316 317 318 317 319 319 319 319 319 318 318 318 319 318 318 317 316 316 317 317 315 315 314 315 315 313 313 315 312 308 305 310 312 315 318 317 313 301 301 305 303 299 299 298 300 300 300 300 297 297 298 297 297 296 293 290 288 287 286 286
319 321 321 321 321 322 322 322 321 320 320 319 319 318 318 318 318 318 318 317 316 317 318 317 317 317 317 317 318 317 318 319 318 319 319 318 318 318 318 318 318 317 316 316 316 316 317 316 315 315 315 314 313 314 314 314 309 311 312 314 314 310 310 307 306 302 302 302 295 296 298 299 298 298 297 297 297 297 296 295 292 289 288 287 286
319 320 320 321 321 321 321 322 322 320 321 320 319 319 319 319 318 318 318 318 318 318 317 318 317 315 316 316 316 316 317 318 319 318 319 319 317 318 318 317 317 317 316 316 317 317 316 316 315 316 316 315 315 316 316 317 315 314 312 312 312 313 308 308 310 309 309 299 299 297 297 298 297 298 299 299 297 296 296 295 294 291 288 287 287
318 319 320 321 321 321 321 322 322 321 321 320 319 319 319 320 319 318 317 318 319 319 313 313 315 315 315 315 315 316 316 316 318 318 318 319 316 317 318 318 317 317 315 316 316 316 316 316 315 315 316 317 317 318 318 317 316 316 313 312 312 312 312 310 308 307 307 307 307 301 300 295 296 297 298 298 298 297 296 297 296 293 290 288 287
317 318 319 321 321 322 321 321 321 322 321 320 319 319 319 318 319 318 318 318 317 315 312 314 313 313 315 315 314 315 315 315 316 317 317 318 318 317 317 318 318 318 315 316 316 316 316 316 317 317 318 318 319 318 317 318 318 318 317 316 313 312 311 310 308 308 305 305 305 301 302 298 296 299 298 297 297 297 297 296 296 294 291 289 288
315 317 318 320 321 321 321 320 321 322 321 320 319 319 319 318 319 319 318 318 317 316 314 314 313 311 314 313 314 315 315 316 315 316 317 317 318 317 317 318 318 317 316 317 317 318 318 318 319 320 319 319 319 319 317 316 318 318 318 317 316 315 313 311 310 309 309 305 304 305 305 301 302 303 299 298 297 298 297 295 296 295 294 291 289
Wind_Speed
4 4 4 7 7 5 5 9 9 8 9 10 10 11 12 13 13 13 13 14 15 16 16 15 15 14 13 13 13 14 16 16 16 16 16 16 16 16 16 17 17 16 15 15 15 16 16 16 15 15 15 15 16 18 17 17 16 15 16 17 17 17 18 18 17 17 16 17 16 16 16 16 16 18 16 16 16 16 12 14 11 6 7 13 18
6 3 4 4 7 6 5 8 9 9 10 11 10 11 12 13 13 12 13 14 14 14 14 14 14 13 12 13 13 13 13 13 15 15 15 15 15 15 15 16 16 16 13 13 14 15 16 16 15 16 16 16 17 18 17 16 16 16 17 17 17 18 18 18 16 15 16 15 16 16 16 16 16 18 17 17 16 15 10 12 12 4 6 16 17
3 3 3 5 8 6 6 8 8 8 8 11 10 10 11 12 12 13 13 13 11 11 11 12 13 12 12 13 13 13 13 14 13 13 15 15 15 15 16 15 14 14 13 13 14 15 15 15 16 16 15 16 17 17 17 16 16 16 16 16 16 17 16 16 15 15 15 15 14 13 12 13 17 15 16 16 16 14 12 17 16 13 10 17 15
4 3 3 6 8 6 6 9 9 8 8 10 11 9 11 12 12 12 12 12 11 12 13 12 11 12 13 13 13 13 13 13 12 14 14 14 14 14 14 14 13 13 12 13 14 15 15 15 15 15 15 15 15 17 16 15 15 15 15 15 15 15 15 15 14 14 14 14 13 10 5 5 7 16 14 15 16 14 11 16 16 16 16 15 16
5 3 3 4 4 5 7 9 9 10 9 9 9 9 7 9 12 11 11 11 12 13 12 9 10 11 11 12 13 12 12 12 11 13 13 13 12 12 12 13 13 13 13 14 14 14 15 15 15 15 15 15 15 16 16 15 15 15 14 14 14 15 15 15 15 14 13 13 12 8 5 5 4 13 13 14 15 12 10 14 13 14 13 14 15
5 4 3 3 3 3 7 8 10 10 9 9 10 8 8 7 8 10 10 9 10 11 10 9 10 10 11 13 13 13 13 13 13 13 12 12 13 12 12 12 12 12 12 13 13 14 14 15 15 15 15 15 14 14 15 15 14 14 14 14 14 14 14 14 14 14 13 12 9 5 6 5 5 5 13 13 13 11 13 12 14 14 14 13 13
8 4 4 3 3 4 7 9 11 10 10 9 8 8 8 8 8 7 7 9 10 11 8 9 10 11 12 12 14 12 12 11 12 12 13 14 14 14 13 12 13 12 12 12 13 14 14 14 14 14 14 15 14 13 14 14 14 14 13 13 13 13 14 13 13 13 12 8 5 5 5 5 4 3 13 12 12 12 12 11 11 11 11 12 12
5 4 3 3 3 4 8 8 8 10 10 8 8 10 8 9 7 7 7 6 9 10 9 9 9 11 11 13 13 12 11 12 12 12 11 12 13 12 11 10 11 12 12 12 13 13 13 13 13 13 14 14 14 13 13 13 13 13 12 12 13 12 12 12 11 11 11 6 5 5 5 4 4 3 12 11 12 12 11 11 11 13 12 11 4
5 5 4 3 2 6 7 8 10 10 10 10 9 8 7 7 8 9 7 5 9 9 9 8 10 10 13 13 13 13 13 13 12 11 11 11 10 10 11 12 11 11 11 12 12 13 13 13 13 13 14 14 13 13 13 12 12 11 11 11 11 11 10 10 10 10 6 4 5 5 5 5 4 3 9 11 11 9 8 7 7 11 13 11 11
6 4 4 3 3 6 8 8 10 10 10 11 10 9 9 8 8 8 8 7 8 9 9 8 12 11 12 13 13 13 13 13 12 12 11 11 10 10 10 11 11 11 12 12 12 12 12 12 12 12 13 13 13 12 12 12 11 11 10 10 10 11 10 10 10 7 4 4 5 6 6 9 5 5 6 9 8 9 7 7 9 9 8 12 11
7 5 3 3 3 8 8 8 9 8 9 9 9 10 10 10 10 7 8 9 9 9 8 8 11 12 12 11 12 13 13 13 12 10 10 10 10 11 11 10 11 11 11 11 11 11 11 12 12 12 13 12 12 12 12 11 10 10 10 10 10 10 10 9 7 4 4 4 5 5 6 10 6 5 9 8 9 8 9 12 12 11 10 10 11
8 5 4 3 5 8 7 7 8 10 9 8 9 9 10 10 9 9 8 8 8 8 9 8 8 9 10 11 11 12 13 13 11 11 11 11 10 10 10 11 11 10 11 10 10 10 10 11 11 11 12 12 12 12 12 11 11 10 9 9 9 9 8 8 5 5 4 4 4 3 4 5 5 7 10 8 7 11 10 9 9 11 11 11 11
8 6 4 4 4 7 7 7 9 9 8 8 9 9 8 9 8 9 8 9 7 7 8 8 10 8 9 10 11 12 12 12 11 11 10 10 9 10 10 10 10 10 10 10 9 9 9 10 10 11 11 11 11 12 12 11 11 10 9 8 8 8 7 7 4 4 4 4 4 5 5 4 4 8 8 8 7 9 10 10 11 12 12 11 11
9 6 4 4 4 7 8 8 9 8 7 9 10 7 8 8 6 6 10 10 9 7 6 7 8 9 9 10 11 11 11 12 11 10 10 9 9 9 9 9 9 9 9 9 8 8 8 9 9 10 10 10 10 11 12 11 11 10 9 7 6 6 6 5 5 4 4 4 4 4 4 4 3 7 9 7 9 9 10 10 12 11 12 11 11
10 7 5 5 5 6 9 9 8 8 8 8 9 9 8 8 10 7 8 7 8 9 7 7 6 7 9 9 9 10 10 12 11 11 10 9 9 9 9 9 9 8 8 8 8 7 8 8 9 9 9 9 10 10 11 11 10 10 8 7 6 5 5 3 3 3 4 3 3 4 4 4 8 8 8 9 8 9 9 10 12 11 11 11 10
7 7 5 4 5 6 6 7 8 8 8 8 5 8 8 7 5 9 9 7 7 8 7 6 6 7 8 9 9 9 10 11 11 10 8 8 9 8 8 8 8 8 8 7 6 7 7 8 8 8 8 8 9 9 9 10 10 9 8 6 5 5 4 3 3 3 3 4 3 3 4 4 11 8 9 8 8 7 8 11 11 11 11 10 10
8 6 6 5 5 5 6 5 6 9 7 6 5 8 6 4 3 9 8 7 6 7 7 6 7 6 6 7 9 9 10 11 10 9 7 8 7 6 6 7 7 7 6 5 6 6 7 8 8 8 7 8 8 8 8 9 9 8 8 7 5 3 3 3 3 3 3 3 3 4 5 4 9 10 11 10 9 8 9 9 11 10 10 10 10
8 7 7 6 6 5 6 5 6 4 4 4 6 7 6 6 6 8 6 5 6 5 4 6 8 9 8 6 4 7 9 8 7 7 7 7 6 5 5 7 7 6 5 5 5 5 6 6 7 7 8 7 8 8 8 8 8 8 7 7 6 4 2 2 2 1 2 3 4 3 4 7 12 10 10 8 8 9 9 10 10 9 9 9 10
7 7 6 6 6 5 6 5 5 4 3 3 3 4 7 7 7 6 5 5 8 8 9 9 9 8 7 6 6 7 7 7 7 8 7 7 7 6 5 5 6 6 5 4 4 4 5 5 6 6 7 8 8 7 7 7 6 6 6 5 4 3 2 2 1 2 3 3 3 4 5 9 11 11 10 8 9 8 9 10 10 9 9 9 11
6 7 6 6 6 6 6 6 5 5 3 3 3 3 5 7 6 7 6 7 8 8 8 8 9 8 7 7 7 6 6 5 8 6 7 7 7 5 5 3 5 5 4 3 3 3 4 4 5 6 7 8 7 7 7 6 6 6 5 3 2 3 2 1 0 1 2 3 2 3 6 10 11 12 11 9 8 8 9 10 7 9 9 10 11
6 7 5 6 7 7 6 6 5 5 5 4 3 3 3 6 5 6 6 6 7 8 8 8 7 7 7 6 6 4 4 3 4 3 5 3 5 6 5 4 4 4 3 2 3 3 3 3 4 5 6 7 7 6 6 7 6 6 7 5 3 2 3 2 0 0 1 1 2 3 7 9 11 11 9 8 7 8 9 8 8 9 9 10 13
8 7 6 6 7 7 8 7 6 6 5 5 3 3 3 3 3 3 3 4 5 6 6 4 5 4 6 5 3 3 3 2 3 4 2 3 3 3 4 4 4 3 2 2 2 2 3 3 5 6 7 7 6 3 3 5 6 5 5 4 3 2 2 1 0 0 0 2 2 4 7 9 10 10 8 7 7 7 7 7 8 9 10 11 14
8 6 6 6 6 7 7 7 7 7 7 6 4 4 4 3 3 3 3 4 4 4 3 4 4 4 4 3 3 3 3 3 3 3 2 3 3 2 1 3 4 3 2 5 6 6 6 7 7 7 6 6 3 2 2 3 3 5 4 3 3 4 3 2 0 1 1 2 2 5 8 10 9 9 6 5 5 6 6 6 8 9 10 13 13
9 6 7 4 5 7 8 7 8 7 8 6 5 4 4 3 3 3 3 3 4 4 3 4 4 4 4 4 3 3 3 2 2 4 4 2 2 3 5 5 5 5 6 3 5 4 5 5 5 5 4 2 2 2 3 2 3 3 3 4 3 2 3 3 1 1 1 2 3 6 8 10 10 9 7 5 5 6 6 6 9 10 11 12 12
8 7 6 6 6 7 7 7 8 7 8 7 8 7 4 4 4 4 4 4 4 5 4 4 4 4 4 3 3 4 3 2 2 2 2 2 1 1 1 1 1 1 2 1 1 2 2 2 2 2 2 2 2 2 2 4 4 4 4 3 4 3 3 3 1 1 1 2 3 6 8 9 11 7 7 6 5 8 5 6 9 10 10 11 12
7 8 8 8 8 7 7 6 7 8 8 9 11 8 7 6 5 6 5 5 5 5 5 4 4 3 3 3 3 3 3 2 2 2 1 1 1 1 1 1 1 1 0 1 1 2 2 2 2 3 2 1 2 3 2 1 4 5 4 3 4 4 2 1 2 1 1 1 2 6 7 8 9 8 7 6 6 6 4 3 5 7 8 11 11
8 10 9 8 8 7 7 6 7 7 8 9 9 7 8 7 6 7 7 6 5 5 5 4 4 3 3 3 4 4 3 2 3 2 2 1 2 2 2 2 3 3 2 2 3 2 2 2 2 2 2 2 3 3 3 3 1 3 4 3 3 3 2 1 0 1 2 1 0 4 6 7 7 8 8 6 5 4 3 1 3 8 9 10 9
7 8 9 8 9 10 9 7 7 8 7 8 9 10 11 10 8 8 7 7 6 5 5 5 4 5 4 4 3 4 4 3 3 3 3 2 3 3 3 3 3 3 2 2 3 2 2 2 2 2 3 3 3 4 3 3 2 1 3 4 3 2 1 0 1 1 1 1 2 2 4 5 5 7 7 7 5 3 3 3 4 6 8 9 8
9 9 8 9 10 10 10 9 7 8 7 7 8 9 11 10 8 7 8 5 5 5 5 5 5 4 4 4 4 4 5 4 4 4 3 4 4 4 4 4 3 3 2 3 3 3 3 2 2 3 3 4 3 5 3 4 3 1 1 3 3 3 2 1 1 2 1 1 2 2 3 4 5 6 7 6 6 4 1 3 5 5 7 7 8
10 9 8 9 8 9 10 11 9 8 7 7 6 7 8 10 9 9 8 6 6 5 4 5 5 5 5 4 4 4 5 5 5 4 6 5 4 4 4 4 5 5 3 4 4 3 4 3 4 4 4 4 3 4 2 4 4 4 2 3 4 2 2 1 2 1 1 2 1 1 4 4 5 5 6 6 6 3 2 3 6 5 6 7 7
11 11 9 8 7 8 9 10 9 7 6 8 7 7 7 9 8 8 8 6 6 5 5 5 5 5 5 5 4 4 4 4 5 5 5 5 4 5 5 4 5 6 5 4 3 4 3 4 4 4 3 3 4 3 2 3 4 5 2 2 3 3 2 1 2 2 1 2 1 1 1 4 5 5 7 7 8 8 9 4 4 7 6 7 7
10 11 10 8 7 9 9 9 10 9 8 8 7 7 8 8 7 6 8 7 6 6 5 5 5 5 4 5 5 5 4 4 5 5 5 5 5 5 5 4 6 5 5 5 4 4 4 4 3 2 2 2 4 3 1 2 4 4 2 2 2 3 2 2 3 3 3 3 3 2 1 2 3 5 5 8 7 9 11 4 6 5 6 6 7
7 9 10 9 11 10 10 9 9 9 10 10 8 7 6 6 7 7 7 7 6 6 6 6 6 5 4 5 5 5 5 6 6 6 5 5 5 5 5 5 5 5 4 4 4 3 2 3 4 1 2 1 2 5 1 1 2 3 3 3 2 3 2 3 4 3 5 4 4 3 2 1 1 4 5 7 7 8 9 5 6 6 6 7 7
8 7 7 10 9 7 7 7 8 9 10 9 8 7 7 6 6 6 6 6 6 6 6 6 6 5 5 6 6 6 6 6 6 6 5 5 5 6 6 6 6 4 4 3 4 4 4 3 4 2 4 3 4 4 4 5 4 3 4 3 2 3 3 3 4 4 1 3 3 2 3 3 2 2 2 5 8 9 4 8 7 6 7 7 6
6 8 12 10 8 8 7 7 9 10 10 9 9 9 7 6 6 6 6 7 6 7 6 6 6 6 6 6 6 6 7 7 6 6 6 6 6 6 6 7 5 3 4 3 4 3 4 6 4 3 3 3 3 3 3 4 4 5 5 3 5 3 2 3 3 2 4 3 3 2 1 1 3 2 1 3 5 8 10 4 5 5 7 6 5
11 10 7 7 10 9 8 8 8 11 11 10 9 9 8 7 7 6 6 6 6 7 6 6 6 6 6 6 6 7 6 6 6 6 6 6 6 6 7 6 4 4 5 3 4 5 4 4 3 3 4 5 3 4 2 4 3 5 5 4 5 3 2 2 3 3 3 3 3 3 2 2 3 3 2 2 3 4 8 8 9 10 8 4 7
10 9 10 8 9 9 10 10 11 11 11 11 10 9 8 8 8 7 7 7 7 7 6 6 6 6 6 6 6 7 7 7 7 7 6 6 6 6 6 6 4 4 4 4 4 5 4 4 3 3 4 5 3 4 4 3 4 5 5 4 5 4 3 3 3 3 3 5 4 3 4 3 3 5 4 3 3 3 5 8 8 8 6 8 8
9 10 10 11 11 10 10 11 10 10 10 11 11 10 9 8 7 7 6 7 7 6 6 6 6 7 6 7 7 7 7 8 7 7 7 7 6 7 6 5 4 5 5 5 5 3 3 4 5 3 5 4 4 4 5 4 3 5 4 5 5 4 3 2 2 3 5 5 4 4 4 2 2 4 5 5 3 4 3 5 7 7 6 6 4
8 10 9 9 8 8 7 8 9 9 9 8 8 8 7 6 5 6 6 7 6 6 6 6 6 6 7 8 8 8 8 8 7 7 7 6 6 6 6 5 5 5 5 4 4 4 4 4 5 5 3 5 5 4 5 3 4 4 5 6 4 3 2 1 3 4 5 4 4 4 3 4 3 3 4 4 4 4 4 3 2 2 3 4 6
9 9 10 9 10 8 8 8 9 8 7 7 6 7 6 6 7 4 6 6 6 6 6 7 7 8 8 8 8 8 7 7 7 7 7 6 6 6 7 5 5 5 5 5 5 5 6 5 6 5 4 3 4 4 3 2 3 3 6 5 4 3 2 2 4 5 5 5 5 5 5 3 3 3 3 4 4 4 4 4 3 3 3 2 2
10 10 10 11 11 11 9 12 9 8 9 8 8 8 9 7 5 8 9 7 7 7 8 8 8 8 8 8 8 8 7 7 7 6 7 7 7 6 6 6 5 5 6 8 7 6 6 5 5 4 5 4 4 4 3 2 1 4 2 3 5 2 2 2 4 5 5 5 5 6 5 4 4 4 3 3 4 4 4 5 4 4 3 3 3
12 11 13 13 11 11 12 11 9 10 10 10 9 9 9 9 9 10 9 8 8 8 10 8 9 8 8 8 8 7 7 7 7 7 7 7 7 7 7 7 6 6 7 6 5 6 5 5 4 3 3 6 4 4 4 5 1 3 4 4 3 4 2 2 3 4 4 5 5 6 6 6 6 4 3 3 4 4 4 4 4 5 4 5 5
12 14 13 11 12 12 12 10 10 10 10 11 10 10 8 8 8 6 9 7 7 8 8 8 7 8 8 8 7 7 7 7 7 8 8 8 8 7 8 7 6 6 6 6 5 6 5 6 5 6 4 2 4 2 5 7 4 2 1 1 2 2 2 1 1 3 5 5 5 6 6 6 7 6 5 4 4 5 4 4 5 5 5 5 5
11 9 10 13 12 12 11 11 11 11 10 11 11 9 9 8 8 7 5 7 5 5 6 5 4 5 8 8 8 8 7 8 8 8 8 8 8 9 7 7 8 6 7 7 6 7 6 6 6 6 5 5 3 5 5 6 6 4 3 4 2 1 4 4 5 4 4 5 6 7 6 7 6 5 5 6 5 5 6 6 7 7 6 6 5
12 12 13 13 11 13 13 13 12 12 10 10 12 9 7 5 5 3 1 2 2 2 4 7 7 6 6 7 9 7 9 9 8 8 8 9 8 8 8 8 7 6 6 7 7 8 7 7 8 7 8 8 8 4 3 5 7 8 6 1 1 1 5 3 0 4 2 3 6 6 7 6 7 8 8 8 8 8 8 8 7 6 6 6 5
12 14 13 13 12 12 12 12 11 10 11 11 11 9 9 10 8 8 8 7 8 7 10 10 7 9 10 7 5 8 8 8 7 8 8 8 8 8 7 7 7 7 7 8 7 5 7 8 9 9 8 8 9 5 4 4 8 9 9 9 8 8 2 2 2 5 1 5 3 6 6 6 5 7 8 7 9 9 7 9 8 8 7 7 7
14 11 11 12 13 12 12 13 12 11 10 10 10 10 10 10 12 12 11 11 12 11 8 6 8 7 5 7 8 6 7 8 8 8 8 8 7 7 7 8 8 7 7 7 7 8 8 9 7 7 9 8 6 8 9 8 3 5 7 10 9 6 4 4 7 1 5 2 2 4 6 5 5 5 7 8 9 8 8 8 9 8 8 7 7
13 11 13 11 13 14 13 13 11 11 10 9 11 12 12 11 11 11 10 11 12 12 7 8 6 5 6 8 6 6 7 8 8 8 8 8 7 7 8 8 8 8 8 8 9 8 6 6 8 9 7 7 9 9 9 8 8 6 7 10 10 10 5 6 5 8 7 5 3 1 2 4 5 7 8 9 9 10 10 9 8 8 8 7 8
12 13 13 12 13 13 12 10 11 11 10 12 12 13 13 12 11 10 11 11 11 9 4 4 6 6 7 5 6 6 6 7 8 8 8 8 8 9 9 9 9 9 8 8 8 8 9 8 7 7 8 8 9 10 9 9 7 10 5 6 6 8 8 8 5 1 7 8 8 5 5 1 2 7 8 9 9 9 10 10 10 9 8 8 9
13 13 11 10 11 10 11 12 13 11 11 12 13 13 13 11 11 12 14 12 9 6 4 6 6 5 8 7 6 6 6 6 6 7 7 8 8 8 9 10 10 9 8 9 8 8 8 8 9 10 10 10 8 9 10 8 8 8 9 8 7 5 5 4 4 5 4 5 9 5 6 7 7 10 9 10 12 11 10 7 8 8 9 9 8
8 10 10 10 9 10 11 13 14 11 10 12 13 14 13 12 12 13 14 14 10 8 7 8 6 5 7 6 6 6 6 6 6 6 7 7 9 9 9 9 8 8 8 8 9 9 9 9 9 10 11 11 9 10 11 10 9 9 9 8 9 8 8 7 8 9 10 7 7 9 7 7 11 9 7 11 11 12 9 7 9 9 10 10 9
Wind_Direction
220 175 170 178 171 190 159 121 116 114 108 98 96 101 102 102 103 100 92 89 89 87 85 87 88 89 90 88 88 91 92 89 89 88 85 83 82 81 80 78 76 76 77 81 84 83 81 80 76 74 75 78 80 78 72 69 69 71 70 68 70 69 64 61 58 55 45 41 48 69 61 63 61 61 64 65 61 67 73 76 71 59 59 60 61
166 211 158 168 171 170 158 121 116 118 114 98 97 102 103 103 102 102 97 90 85 89 91 92 92 91 94 96 93 89 88 86 83 84 86 86 84 82 81 80 80 80 81 85 87 88 84 79 74 73 74 80 82 79 74 70 71 76 76 75 71 69 68 65 59 49 45 43 43 42 62 65 63 67 69 69 65 64 72 80 76 72 65 62 57
136 153 160 165 158 162 141 121 118 119 118 106 91 97 108 104 100 97 94 92 92 95 95 94 95 94 96 94 94 93 92 91 92 91 89 86 83 80 78 78 77 81 84 89 88 87 83 77 75 74 76 80 84 81 78 77 75 76 76 75 75 73 71 65 54 45 38 37 34 32 24 50 66 67 73 71 65 51 42 64 62 61 60 63 66
136 157 139 150 154 163 147 117 112 106 102 96 93 93 112 109 102 96 96 97 98 97 97 95 98 99 98 100 100 96 92 89 92 88 84 82 83 83 83 82 82 86 90 94 96 86 79 76 74 75 79 85 92 91 88 84 80 79 78 76 76 73 64 58 53 45 39 34 31 29 21 6 47 64 65 68 67 68 52 60 60 58 57 56 56
135 147 131 137 152 169 144 120 117 110 106 111 106 98 94 114 113 107 100 98 97 98 98 100 99 105 109 106 102 101 99 100 94 92 94 91 89 89 90 93 91 87 90 94 96 92 83 79 77 78 82 89 92 93 91 89 85 83 78 75 74 67 58 52 48 41 37 32 27 22 13 10 4 64 67 72 70 83 78 66 61 61 57 52 50
142 136 127 134 142 147 126 124 121 115 114 120 124 109 107 90 113 118 113 105 99 103 102 107 104 104 107 110 106 103 101 99 101 102 103 102 98 96 92 86 88 97 102 102 97 90 88 83 80 81 85 90 95 95 94 89 85 80 75 76 73 65 60 54 48 42 36 32 26 19 11 11 4 47 69 71 71 78 70 66 60 56 54 51 45
137 131 131 136 135 137 124 127 128 126 122 121 123 122 114 108 97 95 111 118 117 106 102 111 115 118 118 114 110 109 109 109 111 104 97 96 95 91 92 101 101 97 97 101 100 95 87 84 82 81 85 86 88 90 89 87 85 80 77 79 74 67 61 55 49 43 38 31 17 15 16 21 9 22 62 68 67 64 63 59 54 51 45 43 50
130 133 135 139 138 139 125 125 129 128 125 124 124 110 111 116 116 114 103 115 119 112 116 114 116 123 115 118 119 115 112 109 102 103 103 97 90 92 99 94 90 91 98 102 102 95 87 83 81 81 82 85 87 89 90 90 86 83 81 81 77 71 64 57 51 45 41 29 21 15 20 15 4 3 71 71 70 66 58 51 48 48 40 41 58
132 137 135 137 137 132 125 127 127 127 127 122 121 120 115 117 114 103 115 128 116 114 113 117 117 118 121 124 123 118 115 112 112 109 105 100 94 95 96 94 98 99 98 99 98 95 88 83 81 82 83 85 88 90 90 89 87 83 82 79 75 70 64 58 53 47 35 28 22 16 19 22 0 339 70 62 58 51 39 6 346 29 27 25 31
131 130 134 124 136 134 133 135 129 131 131 132 130 131 125 121 115 117 130 130 120 118 123 125 111 125 128 126 120 118 119 115 113 111 107 100 99 101 99 99 95 97 101 99 97 95 90 87 85 84 86 86 87 87 87 87 84 80 78 75 70 63 57 53 51 44 37 26 25 20 15 28 2 328 63 65 61 37 8 12 29 44 26 23 20
136 135 127 121 136 141 141 135 132 131 130 131 137 130 130 131 126 139 147 137 129 130 134 132 123 121 125 122 121 122 120 114 111 109 104 104 108 107 105 105 101 98 99 99 100 100 98 92 89 88 89 90 88 87 84 82 81 81 80 77 70 61 53 49 49 38 36 31 29 18 11 19 6 331 63 57 56 48 33 33 17 20 24 23 22
144 138 132 136 141 137 138 132 135 132 135 140 132 128 131 133 133 141 145 130 132 137 138 134 122 121 125 125 122 120 121 116 116 114 112 107 106 103 100 91 90 94 92 95 99 101 100 97 94 92 89 88 89 86 84 80 79 79 78 75 72 64 55 50 45 30 29 23 29 12 18 17 12 5 32 48 39 52 37 28 20 24 24 31 27
147 144 141 137 136 132 136 132 129 136 144 137 128 129 127 132 135 138 128 133 136 141 134 134 120 130 124 124 126 123 122 119 115 109 105 102 102 102 99 100 102 99 104 103 102 103 103 99 95 91 89 87 85 83 82 79 74 74 75 76 69 63 58 55 42 34 22 16 16 8 6 8 357 24 20 28 29 44 40 29 21 28 28 30 30
149 148 147 139 137 135 133 130 132 141 137 134 138 139 144 131 139 142 121 118 115 108 119 127 134 124 127 132 130 127 124 120 117 114 112 116 114 111 111 113 111 110 104 102 101 104 105 100 96 90 86 82 80 79 78 77 69 65 64 69 68 61 52 46 43 35 23 12 1 1 360 352 336 17 30 25 25 19 29 25 24 24 26 30 34
155 149 151 139 139 137 135 136 136 130 125 129 138 147 157 156 160 168 132 135 130 126 138 148 139 133 129 127 126 128 127 122 120 120 120 121 125 123 123 118 112 109 110 103 96 93 94 95 90 86 82 81 78 76 74 73 70 62 59 59 62 64 65 60 44 37 25 6 349 353 353 343 341 24 22 24 16 28 18 21 25 23 28 32 38
155 150 146 140 137 137 134 136 134 132 135 141 146 152 157 162 158 144 136 145 148 138 148 161 152 143 138 131 128 128 126 118 119 119 120 126 130 129 126 128 124 119 105 99 92 90 93 93 89 84 82 81 79 75 71 72 70 65 57 53 64 75 75 77 57 35 16 360 347 352 350 341 333 16 25 28 20 27 21 25 23 21 31 37 43
160 156 147 147 140 140 137 139 145 140 141 138 134 138 149 149 143 137 144 152 154 148 152 165 131 123 129 134 137 132 126 124 123 119 119 129 131 129 130 129 122 112 107 100 95 89 89 84 80 77 77 77 75 69 62 56 56 56 53 50 47 62 86 87 61 35 10 0 1 353 347 341 343 1 26 15 15 24 19 25 28 30 35 44 49
164 162 158 150 143 140 138 138 142 135 132 135 130 126 114 95 121 132 140 140 151 142 125 84 95 95 100 89 68 126 130 124 121 118 113 99 90 95 116 125 124 116 112 98 88 82 72 67 64 66 63 63 61 55 49 41 38 51 48 41 37 34 37 69 92 41 26 5 354 341 351 340 355 356 17 13 13 20 17 19 33 34 45 51 58
168 171 165 148 146 142 137 135 137 130 121 126 131 124 108 100 101 114 130 119 89 84 92 102 96 94 93 88 81 84 94 96 103 108 108 109 106 99 113 136 134 125 110 94 86 74 59 51 51 52 49 46 40 35 30 24 21 30 58 46 29 26 15 26 36 8 7 8 353 352 335 343 352 352 4 18 18 17 19 24 31 38 54 63 67
176 183 170 151 145 146 140 135 138 136 130 130 129 123 113 104 100 99 104 109 111 106 98 99 105 102 98 99 100 90 84 89 100 108 115 115 110 109 107 123 139 135 121 100 84 67 59 42 38 39 40 42 25 13 5 3 6 9 27 66 26 27 16 0 83 57 11 342 350 348 330 341 347 347 353 16 24 19 31 32 37 48 58 70 77
189 192 180 154 154 149 146 138 147 140 133 129 118 106 93 108 104 111 113 120 130 127 115 104 106 110 107 107 103 102 97 94 88 89 91 83 116 113 107 105 139 137 121 99 78 50 39 28 22 22 32 37 14 357 358 351 353 356 356 3 63 28 3 23 2 42 22 302 346 329 332 334 336 341 345 13 25 30 36 38 44 53 60 70 75
190 183 184 159 160 158 154 148 147 146 137 129 125 105 108 103 113 114 113 120 122 125 125 130 123 119 122 121 118 118 119 121 118 118 90 99 86 99 121 119 112 78 91 89 62 29 11 8 6 12 26 24 3 355 347 340 339 350 346 342 51 22 14 56 189 300 284 324 356 331 331 330 337 341 348 13 27 39 44 48 50 59 67 78 72
189 175 177 172 170 160 157 158 156 152 142 138 143 139 141 128 124 123 130 137 139 138 146 140 139 144 148 139 133 135 143 146 145 140 130 87 86 40 6 125 116 100 74 42 23 12 3 357 0 353 357 1 349 342 337 317 316 336 349 358 19 8 0 10 154 257 37 351 324 334 331 336 340 348 347 22 44 42 53 62 71 71 78 72 73
180 186 169 178 175 168 165 163 157 158 151 155 146 153 154 146 153 156 154 154 155 162 164 161 162 160 161 153 144 145 145 143 136 131 117 114 86 47 47 53 57 55 38 26 6 7 350 340 337 335 346 349 337 330 323 309 323 337 347 11 0 39 8 345 323 34 35 345 315 336 336 338 340 349 12 32 48 49 54 66 84 79 74 78 79
174 173 167 188 186 176 171 172 160 166 159 161 165 169 157 158 162 172 169 169 174 174 178 176 175 171 168 161 150 149 146 142 144 134 135 133 125 67 35 38 32 30 29 354 346 338 344 332 330 343 341 331 332 315 331 330 337 354 354 357 349 18 358 20 338 97 33 296 329 341 341 332 340 13 22 28 39 63 61 87 82 81 79 84 86
171 177 182 187 187 183 179 177 167 169 170 169 172 176 173 176 176 184 175 183 179 183 182 184 182 183 173 156 138 147 148 135 151 152 153 148 165 186 215 219 232 255 55 288 303 310 310 322 319 317 321 305 290 287 293 301 318 336 340 347 355 348 16 0 330 153 143 15 344 342 344 335 358 3 24 19 22 50 74 102 92 80 85 88 93
180 188 180 184 183 185 184 182 180 174 176 175 177 172 180 184 187 177 175 184 186 185 191 186 189 182 177 157 151 165 159 170 175 172 191 185 211 215 214 218 221 227 220 236 257 274 290 294 295 287 296 294 288 293 308 318 301 309 321 324 325 317 325 304 281 267 171 147 47 353 346 345 0 0 359 5 5 45 68 245 73 99 96 94 96
188 190 188 180 182 189 186 183 194 178 179 182 183 186 189 192 195 187 190 187 186 191 191 190 184 186 183 175 173 168 169 175 181 186 195 192 222 217 222 221 226 226 211 225 245 250 259 259 268 281 292 290 303 308 321 312 315 274 308 315 324 301 311 248 164 232 255 304 104 26 355 341 356 356 347 341 349 349 47 284 93 108 101 101 104
199 198 196 192 189 188 186 191 193 190 181 182 191 192 194 196 194 183 197 188 192 194 191 184 190 189 183 181 172 167 185 192 192 196 184 213 220 221 224 226 225 219 212 226 228 240 247 238 244 265 282 293 313 303 324 313 315 299 263 298 309 324 10 358 224 213 206 4 319 55 24 353 359 350 339 331 320 314 190 249 119 118 111 111 113
204 203 202 205 198 188 193 195 193 192 184 183 191 193 200 200 200 198 201 195 199 198 190 193 196 183 191 187 186 181 185 189 195 197 202 218 216 218 227 229 220 223 213 226 211 224 235 234 242 254 274 286 300 284 332 316 318 318 338 321 300 327 324 216 219 272 222 116 266 350 28 11 358 345 333 327 302 292 256 231 143 135 118 126 120
194 202 207 209 198 194 201 197 192 189 187 193 192 195 195 204 201 198 198 196 197 196 203 199 194 196 194 185 188 190 185 186 192 195 208 214 213 212 223 223 229 221 218 225 202 209 224 231 234 244 258 277 276 299 335 311 303 309 332 320 308 316 309 193 194 159 251 153 144 29 21 9 355 343 348 337 340 330 320 206 141 132 138 141 134
198 201 202 200 197 205 206 199 196 190 193 200 193 196 198 200 194 193 202 202 194 204 202 201 202 201 194 187 188 193 193 199 196 200 206 210 217 215 219 207 229 221 214 217 209 208 214 233 246 250 255 259 282 298 292 258 286 283 325 309 308 295 309 212 169 157 175 186 164 123 71 3 345 356 3 355 344 330 314 219 147 153 155 156 145
203 201 201 194 199 202 208 204 197 195 200 204 201 203 197 193 191 197 200 194 197 201 205 204 205 203 194 192 192 193 195 205 208 209 208 216 221 224 223 221 229 218 208 212 212 210 217 255 269 237 272 272 299 288 272 212 271 289 312 287 311 306 263 204 189 178 176 184 184 164 118 95 352 357 2 0 357 332 304 211 148 164 168 162 155
194 194 192 205 198 200 200 201 199 201 205 207 204 203 205 199 197 197 195 191 196 197 206 204 205 203 195 197 197 196 200 207 206 213 208 216 223 223 226 232 232 225 218 200 213 209 229 232 248 256 264 259 265 270 298 295 280 291 286 281 303 275 262 213 200 189 199 177 171 192 171 119 74 20 350 4 3 358 327 157 150 179 183 173 172
195 200 201 195 191 199 190 201 191 202 204 209 205 208 203 201 200 202 198 196 197 202 204 203 202 206 197 205 203 202 205 205 206 207 211 210 218 224 225 233 228 210 212 211 211 217 214 233 225 234 270 268 253 271 265 262 277 290 282 289 285 273 259 214 184 170 190 188 167 169 307 106 94 64 16 36 8 21 31 71 147 178 189 185 184
205 207 206 190 197 196 189 197 189 200 204 207 209 208 203 204 205 205 201 199 203 208 205 203 203 201 201 207 206 208 206 206 203 204 212 209 214 222 226 229 223 200 212 204 189 222 222 236 234 198 251 269 268 277 242 255 261 270 274 280 267 269 262 213 193 183 173 154 191 181 179 191 126 111 89 74 53 30 55 60 65 53 20 214 194
208 204 202 201 206 199 193 195 194 198 202 205 209 208 205 205 206 204 206 200 208 211 208 203 203 204 206 209 206 206 209 206 206 200 206 211 216 223 234 227 208 203 212 210 210 223 216 227 243 204 199 250 241 259 278 253 266 264 281 288 289 306 284 231 215 194 161 185 197 191 180 206 168 141 139 129 102 75 65 72 72 61 44 346 211
210 208 205 201 205 202 200 200 199 198 199 201 203 207 208 205 204 206 203 206 212 212 208 199 209 210 204 212 209 208 211 209 204 199 205 214 214 219 232 225 204 202 212 208 227 217 219 207 244 217 196 206 236 240 255 263 261 276 285 284 290 298 272 234 203 168 181 199 197 202 195 184 249 165 151 145 137 118 88 72 74 76 52 11 324
208 207 206 207 205 206 203 208 205 198 201 199 203 206 205 206 202 203 205 213 214 215 207 209 213 211 210 210 209 210 212 213 206 199 204 213 220 226 232 229 201 207 210 220 232 226 217 209 220 238 199 210 218 225 234 245 268 281 282 282 292 282 293 225 170 177 199 204 196 199 181 192 204 210 166 151 149 138 119 94 96 84 77 53 11
205 203 207 206 207 204 201 206 208 199 196 197 188 197 195 199 205 211 224 218 216 211 212 215 210 213 212 208 211 212 209 209 209 202 204 209 218 222 228 226 209 201 212 223 232 219 221 217 230 224 236 248 234 236 221 229 279 277 280 287 262 264 271 219 191 196 197 196 192 174 198 186 200 225 182 160 150 147 140 147 144 152 127 105 49
206 203 203 208 207 206 195 209 199 197 194 193 193 192 198 203 216 216 220 207 210 211 217 216 214 216 209 209 212 213 206 205 208 200 204 210 216 222 223 231 209 202 211 225 223 222 216 212 219 193 220 244 260 215 220 171 283 301 313 287 295 233 226 223 211 202 204 198 176 182 182 176 197 210 214 160 156 156 161 163 165 157 163 165 186
212 203 206 208 206 205 208 209 195 200 202 199 197 200 201 201 197 209 208 209 207 209 221 216 217 214 208 210 211 208 205 206 204 199 205 205 213 217 219 226 209 212 217 223 222 217 210 212 202 233 198 213 242 197 197 135 266 223 275 309 325 308 254 214 218 220 204 193 185 183 181 189 193 191 183 174 169 171 174 174 162 166 181 186 192
208 205 207 202 204 207 211 206 204 200 204 201 198 206 202 206 202 207 200 217 218 215 222 219 210 214 214 214 209 203 203 206 202 200 205 210 214 213 220 216 214 208 214 222 218 223 211 214 200 213 229 220 235 213 178 187 223 148 172 359 290 337 320 341 299 212 203 196 183 190 190 194 196 183 182 180 186 185 185 179 177 183 191 195 193
210 209 208 209 207 209 207 205 207 204 202 203 204 205 201 203 212 211 215 209 203 210 225 228 210 207 221 212 212 207 202 208 203 201 207 212 210 215 216 211 218 207 212 219 213 224 211 215 206 216 201 250 214 240 192 194 182 140 289 220 228 188 305 277 252 264 200 204 193 202 191 199 191 178 169 195 199 199 200 189 192 193 193 194 189
206 207 207 207 208 208 205 203 206 206 203 199 201 196 187 197 204 207 149 257 285 224 211 231 216 217 224 213 217 201 207 210 204 205 204 211 211 213 213 217 216 212 207 219 219 219 212 210 204 208 198 217 244 232 229 194 206 204 191 139 307 269 223 245 325 275 183 204 228 209 202 196 191 190 193 203 194 200 194 196 203 202 198 193 192
208 212 208 209 207 207 203 204 206 204 205 201 194 188 194 194 187 197 210 212 228 214 222 219 206 213 220 213 208 204 208 211 207 208 208 207 213 213 214 214 218 213 209 219 221 213 212 206 206 207 211 209 226 232 241 222 216 215 223 227 221 256 213 231 131 271 289 226 210 212 212 215 206 197 209 205 201 206 202 205 202 201 197 197 194
215 208 208 211 209 208 203 202 203 204 200 196 186 187 198 203 203 207 209 209 220 230 222 213 214 217 205 210 213 200 202 205 210 209 211 211 213 212 213 216 217 215 210 214 219 218 216 212 205 202 212 206 196 232 233 232 198 242 231 238 252 258 220 163 233 333 303 267 235 213 234 207 204 225 223 220 214 211 213 213 209 205 200 199 195
209 203 210 206 205 208 203 202 202 202 197 190 187 191 200 202 206 212 215 220 221 230 203 215 211 202 204 213 203 201 199 203 207 209 211 211 208 214 212 216 216 217 207 214 221 220 218 217 206 208 208 200 200 217 234 224 217 231 198 228 234 241 238 254 232 220 251 279 278 293 282 216 214 224 223 227 222 216 215 213 215 212 207 199 202
208 208 209 202 205 206 205 200 202 199 199 190 191 196 202 201 204 206 219 226 227 233 202 202 206 201 218 207 202 202 199 205 205 205 208 209 205 213 213 217 217 218 209 220 220 216 214 214 207 207 209 211 209 218 226 230 210 233 204 231 229 234 233 233 252 278 242 255 261 189 226 30 248 251 235 228 228 225 220 213 210 211 208 206 206
209 212 210 203 204 198 198 198 205 200 198 194 194 198 200 200 204 210 218 226 218 226 198 218 210 194 219 211 204 200 201 203 204 208 205 208 211 212 217 219 220 219 212 218 218 218 218 217 214 213 213 216 215 216 223 230 226 232 219 223 217 227 238 239 228 238 268 227 251 232 198 198 217 234 216 226 228 228 223 213 208 211 211 213 208
214 212 209 203 198 194 196 199 206 200 194 196 193 199 198 200 210 211 216 222 215 208 215 228 210 205 220 209 203 206 198 202 194 208 207 206 213 213 217 221 221 219 218 217 221 219 219 219 222 219 218 216 216 216 220 225 228 231 229 224 229 218 218 212 213 211 219 231 240 251 235 207 222 243 230 221 225 229 220 205 214 212 212 212 209